Cambridge, MN

12:09 AM CDT on March 24, 2017 (GMT -0500)
Cambridge Municipal

Weather History for KCBG - June, 2013

Change the Weather History Date:

Tuesday, June 11, 2013

  Actual Average Record
Temperature  
Mean Temperature 65 °F -  
Max Temperature 77 °F 76 °F 94 °F (1956)
Min Temperature 53 °F 53 °F 37 °F (1958)
Growing Degree Days 15 (Base 50)    
Moisture  
Dew Point 61 °F    
Average Humidity 84    
Maximum Humidity 94    
Minimum Humidity 69    
Precipitation  
Precipitation 0.00 in - - ()
Sea Level Pressure  
Sea Level Pressure 29.85 in    
Wind  
Wind Speed 1 mph (WNW)    
Max Wind Speed 7 mph    
Max Gust Speed -    
Visibility 7 miles    
Events Fog , Rain , Thunderstorm    
Averages and records for this station are not official NWS values.
T = Trace of Precipitation, MM = Missing Value Source: NWS Daily Summary

Daily Weather History Graph

Daily Weather History Graph

Search for Another Location

Airport or City:

Trip Planner

Search our weather history database for the weather conditions in past years. The results will help you decide how hot, cold, wet, or windy it might be!

Date:

Astronomy

Jun. 11, 2013 Rise Set
Actual Time 5:23 AM CDT 9:02 PM CDT
Civil Twilight 4:45 AM CDT 9:39 PM CDT
Nautical Twilight 3:55 AM CDT 10:30 PM CDT
Astronomical Twilight 2:47 AM CDT 11:38 PM CDT
Moon 8:13 AM CDT (6/11) 10:57 PM CDT (6/11)
Length of Visible Light 16h 53m
Length of Day
15h 38m
Waxing Crescent, 8% of the Moon is Illuminated
Jun 11
Waxing Crescent
Jun 16
First Quarter
Jun 23
Full
Jun 29
Last Quarter
Jul 8
New

Hourly Weather History & Observations

Time (CDT) Temp. Dew Point Humidity Pressure Visibility Wind Dir Wind Speed Gust Speed Precip Events Conditions
12:15 AM 59.0 °F 55.4 °F 88% 29.83 in 4.0 mi Calm Calm - N/A   Clear
12:35 AM 57.2 °F 55.4 °F 94% 29.83 in 3.0 mi Calm Calm - N/A   Clear
12:55 AM 57.2 °F 55.4 °F 94% 29.84 in 5.0 mi Calm Calm - N/A   Clear
1:15 AM 55.4 °F 53.6 °F 94% 29.84 in 0.5 mi Calm Calm - N/A Fog Fog
1:35 AM 57.2 °F 55.4 °F 94% 29.84 in 2.5 mi Calm Calm - N/A   Scattered Clouds
1:55 AM 55.4 °F 53.6 °F 94% 29.84 in 1.8 mi Calm Calm - N/A   Clear
2:14 AM 55.4 °F 53.6 °F 94% 29.84 in 0.8 mi Calm Calm - N/A   Mist
2:35 AM 55.4 °F 53.6 °F 94% 29.83 in 3.0 mi Calm Calm - N/A   Clear
2:55 AM 53.6 °F 51.8 °F 94% 29.83 in 2.0 mi Calm Calm - N/A   Clear
3:15 AM 53.6 °F 51.8 °F 94% 29.83 in 3.0 mi Calm Calm - N/A   Clear
3:34 AM 53.6 °F 51.8 °F 94% 29.84 in 1.0 mi Calm Calm - N/A   Clear
3:55 AM 53.6 °F 51.8 °F 94% 29.83 in 1.0 mi Calm Calm - N/A   Clear
4:14 AM 53.6 °F 51.8 °F 94% 29.83 in 3.0 mi Calm Calm - N/A   Clear
4:35 AM 53.6 °F 51.8 °F 94% 29.84 in 3.0 mi Calm Calm - N/A   Clear
4:55 AM 53.6 °F 51.8 °F 94% 29.84 in 2.5 mi Calm Calm - N/A   Clear
5:15 AM 53.6 °F 51.8 °F 94% 29.86 in 0.8 mi Calm Calm - N/A   Mostly Cloudy
5:35 AM 53.6 °F 51.8 °F 94% 29.85 in 0.2 mi Calm Calm - N/A Fog Fog
5:55 AM 53.6 °F 51.8 °F 94% 29.86 in 1.2 mi Calm Calm - N/A   Mostly Cloudy
6:15 AM 55.4 °F 51.8 °F 88% 29.85 in 2.0 mi Calm Calm - N/A   Clear
6:34 AM 55.4 °F 53.6 °F 94% 29.86 in 4.0 mi Calm Calm - N/A   Clear
6:55 AM 59.0 °F 57.2 °F 94% 29.85 in 3.0 mi Calm Calm - N/A   Clear
7:15 AM 60.8 °F 59.0 °F 94% 29.85 in 3.0 mi Calm Calm - N/A   Clear
7:34 AM 62.6 °F 60.8 °F 94% 29.85 in 4.0 mi Calm Calm - N/A   Clear
7:55 AM 64.4 °F 60.8 °F 88% 29.85 in 5.0 mi Calm Calm - N/A   Clear
8:15 AM 64.4 °F 60.8 °F 88% 29.85 in 7.0 mi Calm Calm - N/A   Clear
8:35 AM 66.2 °F 62.6 °F 88% 29.83 in 7.0 mi Calm Calm - N/A   Clear
8:55 AM 66.2 °F 62.6 °F 88% 29.85 in 7.0 mi Calm Calm - N/A   Clear
9:15 AM 66.2 °F 62.6 °F 88% 29.87 in 7.0 mi SSW 5.8 mph - N/A   Clear
9:35 AM 68.0 °F 62.6 °F 83% 29.88 in 10.0 mi SW 4.6 mph - N/A   Clear
9:55 AM 68.0 °F 62.6 °F 83% 29.87 in 10.0 mi WSW 5.8 mph - N/A   Clear
10:15 AM 68.0 °F 62.6 °F 83% 29.87 in 10.0 mi West 4.6 mph - N/A   Clear
10:34 AM 69.8 °F 64.4 °F 83% 29.85 in 10.0 mi Calm Calm - N/A   Clear
10:55 AM 69.8 °F 64.4 °F 83% 29.86 in 10.0 mi West 3.5 mph - N/A   Clear
11:15 AM 71.6 °F 66.2 °F 83% 29.86 in 10.0 mi NNW 5.8 mph - N/A   Clear
11:35 AM 73.4 °F 66.2 °F 78% 29.86 in 10.0 mi Calm Calm - N/A   Scattered Clouds
11:55 AM 73.4 °F 66.2 °F 78% 29.84 in 10.0 mi Calm Calm - N/A   Scattered Clouds
12:14 PM 73.4 °F 66.2 °F 78% 29.85 in 10.0 mi Calm Calm - N/A   Clear
12:35 PM 75.2 °F 66.2 °F 73% 29.84 in 10.0 mi Calm Calm - N/A   Clear
12:55 PM 75.2 °F 66.2 °F 73% 29.83 in 10.0 mi North 4.6 mph - N/A   Scattered Clouds
1:15 PM 77.0 °F 68.0 °F 74% 29.83 in 10.0 mi North 4.6 mph - N/A   Scattered Clouds
1:35 PM 77.0 °F 68.0 °F 74% 29.84 in 10.0 mi WNW 4.6 mph - N/A   Clear
1:54 PM 77.0 °F 68.0 °F 74% 29.86 in 10.0 mi WNW 3.5 mph - N/A   Scattered Clouds
2:15 PM 75.2 °F 66.2 °F 73% 29.84 in 10.0 mi Calm Calm - N/A   Scattered Clouds
2:34 PM 75.2 °F 68.0 °F 78% 29.84 in 10.0 mi Calm Calm - N/A   Clear
2:55 PM 75.2 °F 66.2 °F 73% 29.83 in 10.0 mi Calm Calm - N/A   Clear
3:15 PM 75.2 °F 68.0 °F 78% 29.83 in 10.0 mi Calm Calm - N/A   Clear
3:34 PM 75.2 °F 66.2 °F 73% 29.82 in 10.0 mi NNW 3.5 mph - N/A   Clear
3:55 PM 75.2 °F 68.0 °F 78% 29.84 in 10.0 mi NW 3.5 mph - N/A   Clear
4:15 PM 75.2 °F 66.2 °F 73% 29.86 in 10.0 mi WNW 4.6 mph - N/A   Clear
4:34 PM 75.2 °F 66.2 °F 73% 29.85 in 10.0 mi Calm Calm - N/A   Clear
4:55 PM 75.2 °F 66.2 °F 73% 29.84 in 10.0 mi Calm Calm - N/A   Clear
5:14 PM 73.4 °F 66.2 °F 78% 29.84 in 10.0 mi Calm Calm - N/A   Clear
5:35 PM 73.4 °F 66.2 °F 78% 29.85 in 10.0 mi WNW 4.6 mph - N/A   Clear
5:55 PM 73.4 °F 66.2 °F 78% 29.85 in 10.0 mi West 3.5 mph - N/A   Clear
6:14 PM 75.2 °F 68.0 °F 78% 29.86 in 10.0 mi West 5.8 mph - N/A   Clear
6:35 PM 77.0 °F 66.2 °F 69% 29.86 in 10.0 mi WNW 6.9 mph - N/A   Clear
6:54 PM 75.2 °F 64.4 °F 69% 29.86 in 10.0 mi West 4.6 mph - N/A   Clear
7:15 PM 75.2 °F 64.4 °F 69% 29.87 in 10.0 mi WNW 4.6 mph - N/A   Clear
7:35 PM 75.2 °F 64.4 °F 69% 29.86 in 10.0 mi Calm Calm - N/A   Clear
7:54 PM 75.2 °F 64.4 °F 69% 29.85 in 10.0 mi Calm Calm - N/A   Clear
8:15 PM 71.6 °F 64.4 °F 78% 29.85 in 10.0 mi Calm Calm - N/A   Clear
8:35 PM 69.8 °F 62.6 °F 78% 29.85 in 10.0 mi Calm Calm - N/A   Clear
8:54 PM 68.0 °F 62.6 °F 83% 29.85 in 10.0 mi Calm Calm - N/A   Clear
9:15 PM 66.2 °F 60.8 °F 83% 29.84 in 10.0 mi Calm Calm - N/A   Clear
9:35 PM 62.6 °F 57.2 °F 82% 29.85 in 10.0 mi Calm Calm - N/A   Clear
9:54 PM 62.6 °F 59.0 °F 88% 29.86 in 10.0 mi Calm Calm - N/A   Scattered Clouds
10:15 PM 64.4 °F 60.8 °F 88% 29.86 in 10.0 mi Calm Calm - N/A   Scattered Clouds
10:35 PM 64.4 °F 60.8 °F 88% 29.87 in 10.0 mi Calm Calm - N/A   Scattered Clouds
10:55 PM 64.4 °F 60.8 °F 88% 29.88 in 10.0 mi Calm Calm - N/A Rain Light Rain
11:14 PM 64.4 °F 60.8 °F 88% 29.87 in 10.0 mi Calm Calm - N/A Thunderstorm Thunderstorm
11:35 PM 64.4 °F 59.0 °F 83% 29.88 in 10.0 mi Calm Calm - N/A Thunderstorm Thunderstorm
11:55 PM 64.4 °F 57.2 °F 77% 29.88 in 10.0 mi NNW 3.5 mph - N/A Rain , Thunderstorm Light Thunderstorms and Rain